Temp
-13 -13 -13 -13 -13 -13 -13 -13 -13 -13 -13 -13 -13 -13 -13 -12 -12 -12 -12 -11 -11 -11 -11 -11 -11 -12 -11 -11 -11 -11 -9 -9 -7 -8 -8 -11 -8 -9 -10 -10 -9 -10 -9 -7 -8
-12 -12 -13 -13 -13 -13 -13 -13 -13 -13 -13 -13 -13 -13 -13 -13 -12 -12 -12 -11 -11 -11 -11 -11 -11 -11 -11 -12 -11 -11 -9 -8 -10 -11 -11 -12 -9 -9 -9 -9 -10 -10 -9 -9 -9
-12 -13 -13 -13 -13 -14 -14 -14 -14 -14 -14 -13 -13 -13 -13 -13 -13 -13 -12 -12 -12 -12 -11 -11 -11 -11 -11 -12 -11 -11 -9 -9 -10 -11 -11 -12 -11 -9 -9 -9 -10 -10 -9 -8 -9
-13 -13 -13 -13 -13 -13 -14 -14 -14 -14 -14 -14 -14 -13 -13 -13 -13 -13 -13 -13 -12 -12 -12 -11 -11 -11 -11 -11 -11 -10 -10 -10 -10 -10 -10 -10 -11 -10 -10 -9 -9 -9 -9 -8 -9
-13 -13 -13 -13 -13 -14 -14 -14 -14 -14 -14 -14 -14 -14 -14 -13 -13 -13 -13 -13 -13 -12 -12 -12 -12 -11 -11 -11 -12 -11 -11 -10 -10 -10 -10 -11 -11 -10 -11 -10 -10 -10 -9 -9 -9
-14 -14 -14 -14 -14 -14 -14 -14 -14 -14 -14 -14 -14 -14 -14 -14 -14 -13 -13 -13 -13 -13 -13 -12 -12 -12 -12 -12 -12 -11 -11 -11 -11 -10 -10 -10 -10 -11 -10 -11 -11 -11 -10 -10 -10
-14 -14 -14 -14 -14 -14 -14 -14 -13 -14 -14 -14 -14 -14 -14 -14 -13 -13 -14 -13 -13 -13 -13 -13 -13 -12 -12 -12 -12 -11 -11 -10 -11 -11 -11 -12 -11 -10 -10 -10 -11 -11 -11 -11 -10
-15 -15 -14 -14 -14 -14 -14 -14 -14 -13 -13 -13 -13 -13 -13 -13 -13 -13 -13 -13 -13 -13 -13 -13 -13 -13 -12 -12 -12 -12 -11 -11 -11 -12 -12 -13 -10 -10 -11 -11 -12 -11 -10 -11 -12
-15 -15 -15 -15 -14 -14 -14 -14 -14 -14 -14 -14 -13 -13 -13 -13 -13 -14 -13 -13 -13 -13 -13 -13 -13 -13 -13 -13 -13 -13 -12 -12 -12 -13 -13 -13 -10 -10 -11 -11 -11 -12 -11 -11 -12
-16 -16 -15 -15 -14 -14 -14 -14 -14 -14 -14 -14 -14 -14 -13 -13 -14 -13 -13 -13 -13 -13 -13 -13 -13 -13 -13 -13 -13 -13 -12 -12 -12 -12 -13 -12 -10 -10 -10 -11 -10 -11 -11 -11 -12
-16 -16 -16 -15 -15 -14 -14 -14 -14 -14 -14 -14 -14 -14 -14 -14 -14 -14 -14 -14 -14 -14 -14 -13 -13 -13 -13 -13 -12 -12 -12 -12 -12 -12 -12 -12 -10 -10 -11 -11 -10 -10 -10 -10 -10
-16 -16 -16 -16 -15 -15 -14 -14 -14 -14 -14 -14 -14 -14 -14 -14 -14 -14 -14 -14 -14 -14 -14 -14 -14 -14 -13 -13 -13 -13 -13 -13 -13 -13 -13 -13 -12 -11 -11 -11 -11 -11 -10 -10 -11
-15 -16 -15 -15 -15 -15 -15 -14 -14 -14 -14 -14 -14 -14 -14 -14 -14 -14 -14 -15 -14 -14 -14 -14 -14 -14 -14 -14 -14 -14 -13 -13 -13 -13 -13 -13 -12 -11 -11 -11 -11 -11 -11 -11 -11
-15 -15 -15 -15 -15 -15 -15 -15 -15 -15 -15 -15 -14 -15 -15 -15 -15 -14 -15 -15 -15 -14 -14 -14 -14 -14 -14 -14 -14 -15 -15 -15 -14 -14 -14 -15 -12 -12 -11 -12 -11 -11 -11 -11 -11
-14 -14 -15 -15 -14 -15 -15 -15 -15 -15 -15 -15 -15 -15 -16 -16 -15 -14 -14 -15 -14 -14 -14 -15 -15 -15 -15 -16 -16 -15 -16 -16 -15 -15 -15 -13 -15 -10 -12 -12 -12 -12 -12 -12 -12
-14 -14 -14 -14 -15 -15 -15 -15 -16 -16 -16 -15 -15 -16 -17 -16 -16 -15 -15 -14 -15 -14 -14 -15 -15 -15 -17 -17 -18 -18 -17 -16 -16 -16 -16 -15 -18 -11 -12 -12 -13 -14 -14 -13 -12
-14 -14 -14 -14 -14 -15 -15 -16 -16 -16 -16 -16 -17 -17 -17 -17 -16 -16 -16 -16 -16 -16 -15 -17 -18 -19 -19 -19 -19 -20 -20 -19 -18 -19 -18 -20 -18 -13 -13 -15 -14 -13 -14 -14 -13
-14 -14 -14 -14 -15 -15 -15 -15 -16 -16 -16 -17 -18 -19 -19 -17 -18 -18 -18 -18 -17 -17 -16 -17 -18 -20 -20 -20 -20 -20 -20 -21 -22 -21 -20 -21 -19 -18 -16 -18 -16 -15 -14 -14 -14
-14 -14 -14 -14 -15 -15 -15 -16 -16 -16 -17 -18 -18 -18 -18 -19 -19 -19 -19 -19 -18 -17 -18 -19 -19 -20 -20 -20 -21 -21 -20 -21 -22 -21 -21 -20 -20 -19 -19 -19 -19 -18 -16 -15 -14
-14 -15 -14 -15 -15 -15 -15 -16 -16 -16 -18 -19 -18 -18 -19 -19 -20 -20 -20 -19 -18 -18 -19 -19 -19 -19 -20 -21 -21 -22 -21 -21 -21 -22 -21 -20 -20 -20 -20 -20 -20 -19 -19 -18 -15
-15 -15 -15 -15 -15 -15 -16 -16 -17 -17 -18 -18 -19 -18 -18 -19 -20 -20 -19 -20 -19 -19 -20 -20 -19 -19 -20 -21 -20 -21 -22 -21 -21 -21 -21 -21 -20 -21 -20 -20 -19 -19 -19 -18 -17
-15 -15 -15 -15 -15 -16 -16 -16 -16 -17 -17 -18 -18 -18 -19 -20 -20 -20 -20 -20 -20 -20 -20 -20 -19 -19 -20 -20 -21 -21 -21 -22 -22 -22 -21 -21 -20 -21 -21 -21 -20 -19 -20 -19 -18
-15 -15 -15 -15 -16 -16 -16 -17 -16 -17 -17 -18 -18 -19 -19 -20 -20 -20 -20 -20 -20 -20 -20 -20 -20 -19 -20 -21 -21 -22 -22 -22 -22 -22 -21 -22 -20 -21 -21 -20 -20 -19 -18 -19 -19
-15 -15 -15 -16 -16 -16 -16 -17 -17 -17 -17 -17 -18 -19 -20 -20 -20 -20 -21 -21 -21 -20 -20 -20 -20 -20 -20 -21 -21 -21 -22 -22 -22 -21 -21 -21 -20 -20 -21 -20 -20 -19 -18 -18 -19
-15 -15 -16 -16 -16 -16 -16 -17 -17 -17 -17 -17 -19 -19 -19 -20 -20 -20 -20 -20 -20 -20 -20 -20 -20 -20 -20 -20 -20 -21 -22 -22 -22 -21 -21 -20 -21 -21 -20 -20 -20 -20 -19 -18 -18
-15 -16 -16 -16 -16 -16 -16 -17 -17 -17 -17 -18 -18 -19 -20 -20 -20 -21 -20 -20 -21 -20 -20 -20 -20 -20 -20 -20 -21 -20 -21 -21 -21 -21 -21 -20 -21 -22 -20 -20 -20 -21 -19 -18 -18
-15 -16 -16 -16 -16 -17 -17 -17 -17 -17 -18 -18 -19 -19 -20 -20 -20 -21 -21 -21 -21 -20 -21 -20 -20 -20 -20 -20 -21 -21 -21 -21 -21 -21 -21 -20 -21 -20 -21 -20 -20 -19 -18 -17 -17
Height
5761 5760 5758 5757 5756 5756 5755 5755 5754 5754 5754 5754 5754 5755 5757 5758 5760 5762 5762 5765 5767 5769 5772 5778 5781 5786 5789 5792 5795 5800 5802 5806 5817 5825 5833 5830 5835 5839 5836 5837 5843 5844 5847 5848 5853
5757 5755 5753 5752 5751 5750 5750 5750 5749 5750 5749 5749 5750 5751 5752 5753 5754 5756 5758 5759 5761 5764 5767 5770 5773 5777 5782 5786 5788 5791 5797 5802 5809 5813 5814 5816 5826 5829 5831 5832 5836 5839 5840 5846 5843
5753 5750 5748 5747 5745 5745 5744 5744 5744 5744 5745 5745 5745 5747 5748 5749 5750 5751 5753 5754 5756 5758 5761 5764 5766 5770 5774 5778 5781 5785 5788 5797 5799 5802 5805 5812 5817 5822 5826 5829 5834 5835 5837 5835 5839
5749 5746 5744 5742 5741 5739 5739 5738 5738 5739 5739 5740 5740 5741 5742 5744 5746 5745 5747 5750 5752 5753 5756 5758 5761 5764 5767 5770 5774 5776 5779 5785 5790 5791 5794 5802 5808 5810 5816 5828 5827 5833 5832 5833 5832
5745 5743 5740 5738 5737 5735 5734 5733 5733 5733 5733 5734 5734 5735 5736 5739 5740 5740 5742 5744 5746 5748 5750 5753 5754 5757 5760 5763 5766 5769 5773 5773 5779 5783 5786 5788 5794 5801 5804 5816 5818 5823 5827 5831 5828
5743 5740 5737 5735 5733 5732 5730 5729 5728 5727 5727 5728 5728 5728 5729 5732 5734 5733 5735 5738 5741 5742 5743 5746 5749 5751 5753 5756 5759 5762 5765 5768 5772 5776 5778 5777 5784 5786 5800 5805 5806 5811 5819 5822 5823
5739 5736 5734 5732 5730 5728 5726 5725 5723 5723 5722 5722 5722 5722 5723 5725 5726 5728 5729 5730 5733 5736 5737 5739 5741 5743 5745 5747 5750 5753 5755 5758 5762 5763 5763 5764 5770 5781 5794 5796 5796 5799 5806 5811 5815
5735 5733 5730 5728 5726 5724 5722 5721 5720 5719 5718 5717 5717 5717 5718 5718 5719 5723 5722 5723 5725 5727 5729 5731 5732 5734 5735 5738 5741 5743 5746 5750 5753 5749 5749 5749 5761 5774 5777 5778 5783 5789 5793 5802 5803
5729 5727 5726 5724 5722 5721 5720 5718 5717 5715 5714 5713 5713 5713 5713 5713 5714 5714 5715 5717 5718 5719 5721 5723 5725 5726 5726 5728 5732 5733 5737 5739 5740 5737 5734 5736 5753 5764 5761 5760 5765 5771 5778 5786 5791
5723 5721 5720 5719 5718 5717 5716 5715 5714 5712 5711 5710 5709 5710 5709 5710 5710 5707 5710 5710 5711 5712 5713 5715 5716 5718 5717 5718 5720 5722 5723 5727 5726 5726 5724 5728 5741 5748 5751 5746 5751 5757 5758 5763 5774
5719 5716 5714 5713 5714 5713 5713 5712 5713 5711 5709 5707 5706 5706 5705 5705 5705 5703 5705 5704 5704 5705 5706 5706 5708 5709 5709 5708 5710 5712 5713 5713 5713 5714 5716 5719 5726 5734 5738 5739 5743 5747 5751 5755 5764
5715 5712 5709 5707 5708 5709 5709 5708 5708 5708 5706 5703 5703 5701 5700 5700 5700 5698 5699 5700 5699 5699 5699 5700 5700 5698 5698 5698 5700 5701 5701 5700 5703 5702 5703 5704 5711 5723 5726 5727 5733 5736 5741 5745 5750
5713 5709 5706 5702 5702 5704 5704 5704 5703 5703 5702 5701 5698 5697 5696 5695 5694 5693 5694 5693 5692 5692 5692 5692 5692 5690 5689 5688 5689 5689 5686 5685 5687 5690 5688 5684 5699 5706 5712 5711 5716 5722 5725 5730 5735
5712 5708 5704 5701 5700 5699 5699 5699 5699 5698 5698 5697 5694 5693 5691 5690 5688 5687 5688 5688 5685 5685 5685 5684 5683 5682 5680 5679 5678 5677 5676 5673 5674 5673 5673 5677 5677 5689 5697 5696 5698 5704 5708 5713 5715
5714 5709 5705 5700 5698 5695 5696 5694 5694 5693 5692 5691 5688 5687 5686 5684 5682 5679 5679 5680 5679 5678 5679 5677 5675 5673 5671 5670 5668 5665 5664 5661 5661 5657 5654 5665 5653 5677 5679 5681 5687 5688 5689 5692 5699
5717 5711 5706 5701 5697 5695 5692 5691 5690 5688 5683 5681 5682 5681 5680 5676 5675 5672 5671 5670 5670 5670 5668 5667 5663 5660 5658 5657 5655 5651 5649 5649 5647 5645 5639 5649 5642 5657 5660 5665 5665 5666 5667 5673 5681
5720 5714 5708 5703 5698 5694 5691 5689 5686 5682 5680 5676 5675 5673 5671 5669 5666 5665 5664 5663 5661 5660 5658 5658 5656 5653 5651 5650 5647 5641 5637 5632 5633 5631 5630 5630 5628 5640 5641 5640 5638 5641 5649 5655 5666
5721 5715 5709 5702 5698 5693 5690 5687 5683 5679 5675 5672 5670 5666 5663 5662 5661 5660 5658 5656 5654 5652 5651 5651 5652 5650 5645 5642 5638 5636 5634 5629 5619 5621 5620 5621 5618 5625 5623 5620 5622 5625 5628 5638 5647
5721 5716 5710 5703 5697 5692 5689 5684 5680 5676 5672 5669 5665 5661 5658 5655 5656 5656 5653 5650 5647 5647 5647 5645 5646 5643 5640 5636 5631 5628 5626 5622 5614 5615 5610 5615 5616 5616 5615 5611 5611 5611 5613 5618 5630
5720 5715 5709 5703 5697 5691 5686 5681 5675 5669 5666 5662 5658 5657 5653 5651 5649 5647 5648 5644 5641 5641 5641 5640 5639 5638 5633 5629 5629 5620 5617 5614 5609 5607 5604 5606 5604 5607 5607 5603 5604 5603 5602 5605 5612
5719 5714 5708 5702 5696 5690 5683 5676 5670 5664 5660 5656 5651 5647 5644 5641 5640 5641 5641 5638 5636 5637 5637 5634 5632 5632 5626 5622 5618 5615 5608 5605 5603 5603 5598 5596 5596 5598 5596 5595 5593 5592 5591 5592 5597
5718 5711 5706 5700 5694 5687 5680 5673 5667 5660 5655 5650 5644 5640 5636 5634 5635 5633 5632 5630 5629 5631 5631 5631 5625 5622 5620 5615 5610 5605 5600 5596 5594 5595 5593 5590 5589 5590 5587 5586 5582 5583 5583 5582 5584
5715 5709 5703 5698 5691 5684 5677 5671 5663 5656 5650 5645 5640 5635 5632 5630 5629 5627 5625 5626 5625 5625 5624 5622 5619 5614 5614 5610 5603 5596 5592 5589 5587 5585 5587 5585 5585 5584 5583 5582 5577 5574 5575 5575 5577
5712 5705 5699 5693 5687 5682 5675 5668 5660 5653 5646 5640 5636 5631 5629 5626 5623 5622 5620 5621 5620 5618 5619 5616 5614 5610 5606 5601 5595 5590 5586 5581 5579 5578 5579 5579 5577 5578 5578 5575 5572 5568 5568 5568 5569
5708 5702 5696 5689 5683 5676 5671 5664 5659 5652 5645 5638 5633 5626 5624 5622 5619 5616 5616 5616 5615 5613 5612 5610 5607 5602 5598 5592 5589 5583 5580 5576 5573 5572 5571 5574 5570 5571 5571 5569 5567 5562 5557 5559 5562
5704 5697 5691 5686 5680 5673 5667 5661 5654 5649 5641 5635 5630 5624 5619 5616 5614 5612 5612 5611 5611 5609 5605 5604 5602 5598 5592 5589 5584 5580 5575 5572 5571 5570 5568 5565 5563 5563 5562 5564 5562 5557 5555 5554 5557
5700 5694 5686 5681 5675 5669 5663 5656 5650 5643 5639 5631 5626 5621 5616 5613 5609 5607 5607 5607 5607 5605 5603 5600 5597 5594 5591 5587 5581 5578 5572 5569 5566 5564 5561 5558 5557 5554 5555 5559 5557 5555 5554 5558 5562
Wind_Speed
19 21 22 22 22 21 21 20 19 19 19 20 21 22 23 24 24 26 29 30 31 34 38 40 43 44 41 41 41 42 42 40 46 48 38 35 44 46 43 44 40 32 34 36 31
16 17 20 22 22 21 21 20 19 20 19 18 18 19 20 20 21 25 26 28 29 30 31 36 41 43 45 44 45 42 40 34 40 42 40 37 51 44 52 48 42 37 39 36 31
17 16 16 18 21 23 22 21 20 20 19 19 19 19 20 19 19 21 23 26 27 29 30 31 35 40 43 45 47 46 43 38 33 45 46 40 43 49 46 56 47 43 45 43 34
18 17 16 16 17 19 21 22 23 23 23 22 20 20 21 20 20 20 20 22 24 26 29 31 32 35 38 40 41 42 43 43 40 41 51 48 44 49 53 46 56 46 49 48 51
15 15 14 15 15 17 18 18 18 20 21 22 23 24 24 21 20 22 23 23 24 26 27 29 32 34 35 38 39 41 42 45 42 42 44 54 55 49 52 60 48 52 56 49 50
16 15 15 15 15 15 16 18 20 21 21 21 21 22 22 22 21 26 26 26 26 27 28 29 30 32 33 34 37 40 42 43 41 40 42 47 51 63 50 47 58 60 49 53 53
21 17 15 15 16 15 14 16 17 17 20 22 23 23 24 24 24 24 25 28 29 29 30 31 32 34 35 36 38 40 43 44 44 42 43 44 48 44 48 59 55 62 66 50 51
22 21 18 16 16 15 14 13 13 13 15 15 17 21 22 24 24 22 26 28 29 30 31 33 34 36 38 39 40 41 42 42 41 44 45 44 47 40 43 53 54 64 60 52 53
23 23 20 19 16 14 13 11 11 12 12 13 13 14 15 17 15 18 22 23 26 27 31 33 35 36 38 39 40 43 43 46 46 47 50 52 49 44 45 53 53 53 67 64 54
22 22 23 19 17 14 12 10 10 12 11 11 12 13 13 14 12 19 18 20 21 23 26 28 30 32 34 39 41 42 45 45 49 51 54 54 50 49 51 55 56 55 56 60 54
20 19 20 20 17 16 13 13 11 13 13 11 12 12 11 12 13 19 17 20 22 23 25 29 31 32 35 39 42 43 46 48 50 52 55 57 54 53 54 56 57 57 59 60 54
20 16 20 16 17 16 16 14 13 15 16 15 14 14 14 15 15 16 16 17 20 22 25 27 28 33 36 38 41 43 46 49 49 51 54 56 57 51 53 56 57 59 59 59 57
22 18 17 15 13 15 17 15 15 15 17 17 18 17 16 15 17 18 16 16 21 22 23 25 27 30 33 36 39 41 46 51 53 54 56 59 58 56 56 59 58 57 58 59 59
23 18 19 19 11 15 16 17 19 20 19 18 20 17 18 19 20 21 19 19 22 23 23 25 27 30 32 36 38 41 43 48 49 53 56 54 62 58 58 61 62 61 60 60 61
29 22 19 19 17 12 17 19 18 19 22 22 21 19 18 23 22 25 24 22 22 23 24 25 25 27 31 31 33 38 40 44 49 54 58 56 62 58 57 60 59 63 62 63 62
32 29 24 21 19 17 14 15 21 23 28 31 27 18 15 23 24 27 26 25 23 23 26 27 30 33 29 29 31 37 41 46 47 47 55 54 55 59 60 59 57 59 65 67 66
33 31 29 26 23 20 18 18 20 20 22 26 21 19 18 21 26 26 26 25 25 29 31 29 23 25 26 28 29 27 33 40 40 35 38 37 48 57 60 59 64 66 63 65 66
33 33 32 31 27 24 22 20 19 21 24 23 18 20 23 24 27 27 25 26 28 32 33 27 19 17 24 28 30 29 30 31 37 28 22 23 36 34 45 43 55 64 67 64 63
31 31 31 31 30 28 28 27 23 24 23 22 24 26 24 23 25 22 23 28 31 31 22 20 18 19 27 30 32 31 32 29 37 35 35 20 20 30 27 33 35 45 56 60 58
31 31 32 30 29 29 30 29 31 33 24 21 25 25 27 25 23 22 20 28 28 18 14 19 25 24 27 27 29 30 34 32 30 31 33 27 29 26 30 36 37 37 42 51 58
31 31 31 31 29 29 31 30 32 29 25 21 23 23 24 20 20 17 21 19 15 12 15 21 23 20 19 22 26 29 32 32 30 30 37 35 29 24 25 29 34 38 43 43 50
30 31 30 31 30 30 31 31 33 29 28 23 23 22 18 15 12 17 20 15 15 14 16 17 24 23 16 22 26 30 29 33 34 34 27 29 29 25 24 22 31 38 40 45 46
31 30 30 31 31 30 32 32 33 33 30 28 23 20 15 13 14 15 15 16 18 18 19 19 21 25 23 24 30 23 23 24 32 37 36 37 29 31 27 27 34 34 35 31 40
32 30 31 31 33 32 31 32 33 34 33 30 23 20 14 14 17 12 12 15 19 20 15 21 20 23 28 30 34 24 19 26 29 32 32 28 31 25 24 29 32 29 30 32 31
33 31 29 30 33 35 33 32 32 32 32 31 25 24 17 14 15 14 10 11 16 19 16 19 18 22 27 24 26 21 16 18 26 30 32 26 33 29 27 28 33 25 17 20 26
31 33 32 30 32 35 36 33 33 32 34 32 27 21 21 20 16 11 12 14 12 16 19 18 22 21 22 21 24 19 16 13 16 24 32 37 34 28 31 20 20 24 35 18 30
30 30 33 34 33 35 37 35 33 34 32 32 29 24 22 21 18 14 15 14 12 12 16 16 20 18 20 21 27 24 19 14 18 21 25 25 27 31 26 17 15 10 4 23 35
Wind_Direction
289 283 281 280 278 278 278 275 274 273 271 260 253 253 250 250 245 241 241 240 238 237 237 232 236 234 235 236 239 238 247 244 235 228 221 225 208 205 209 200 195 202 207 212 207
305 295 284 277 275 274 274 274 272 268 268 266 258 255 254 248 245 241 237 237 237 236 235 234 232 235 236 236 243 241 250 252 247 238 234 228 209 217 218 210 198 195 210 210 204
310 305 297 288 279 274 271 268 268 266 262 261 259 256 253 251 245 243 240 237 236 236 235 234 235 235 233 236 239 241 243 246 247 233 232 228 235 223 226 227 208 202 211 217 228
314 308 304 296 287 279 275 269 265 264 263 259 255 253 252 248 247 245 243 241 239 236 236 237 237 236 237 237 238 240 243 241 236 233 231 229 222 220 224 224 232 219 217 224 231
322 316 310 305 299 289 278 273 270 265 263 262 260 254 252 247 247 249 243 240 240 239 238 237 238 238 238 241 238 239 240 244 240 236 238 235 229 227 225 220 230 231 231 230 232
318 314 312 310 306 300 295 282 268 264 262 259 260 261 258 253 246 245 244 244 241 242 241 240 240 241 243 242 243 245 244 247 248 249 247 244 237 231 225 223 228 231 232 231 230
321 318 316 312 306 301 299 291 283 274 265 262 261 258 260 260 248 244 247 244 243 240 244 245 243 242 241 243 244 244 244 242 243 244 245 247 240 238 238 227 227 229 224 219 225
318 316 315 315 310 309 304 299 297 284 275 273 268 264 261 258 256 254 248 248 248 246 242 244 245 245 246 245 245 245 245 245 248 250 248 247 236 233 231 237 240 232 232 225 227
308 307 310 308 311 311 304 307 302 293 290 288 279 274 272 268 270 257 254 254 250 249 248 247 247 248 251 250 249 248 245 245 243 246 248 249 240 230 232 233 232 233 234 237 228
316 304 294 302 299 302 310 305 302 297 299 293 285 279 276 269 266 258 257 257 258 257 257 257 256 255 254 253 250 249 250 249 246 246 248 248 248 241 235 236 234 233 234 230 230
323 319 312 285 293 286 294 301 302 298 302 294 286 278 273 268 254 254 257 260 260 261 262 264 263 260 260 262 261 259 257 256 252 250 249 252 249 246 243 242 243 239 235 239 233
332 333 334 296 283 286 278 285 292 297 297 292 295 284 279 274 266 260 257 255 262 263 263 263 266 269 269 267 265 265 262 259 258 257 258 253 250 247 247 247 244 245 244 241 239
349 338 334 331 273 285 283 276 281 288 287 286 284 280 277 271 270 268 267 268 266 267 270 271 270 270 270 270 271 269 266 265 263 258 257 256 251 249 246 247 246 242 245 246 245
6 3 3 350 308 277 283 285 289 292 288 284 277 273 262 266 267 266 267 270 273 273 273 273 273 272 272 274 274 273 272 272 270 267 264 261 261 249 248 247 247 246 244 242 242
12 9 2 1 356 318 282 281 287 292 289 277 273 273 273 276 271 271 270 269 268 273 273 276 274 271 271 272 271 273 271 270 269 267 266 262 262 249 248 248 247 249 246 244 243
19 18 14 6 356 344 325 303 296 297 287 283 284 287 276 274 271 270 269 277 282 283 288 295 297 295 298 297 297 293 288 280 276 272 266 265 263 252 255 251 246 241 244 243 242
9 14 17 14 14 10 353 332 314 301 298 296 301 287 286 279 279 284 288 296 301 301 303 305 303 299 298 298 299 309 320 307 288 276 273 266 262 259 257 255 249 244 239 241 240
7 7 7 7 5 6 2 350 336 330 323 310 296 286 282 278 286 293 300 302 299 298 304 308 305 305 298 297 299 295 305 296 284 280 265 255 271 267 254 256 253 251 248 239 238
2 360 1 3 359 357 353 345 337 326 319 309 294 294 289 289 289 290 294 291 295 299 302 303 305 302 300 295 296 293 298 293 263 267 269 272 263 251 252 266 259 252 246 248 241
360 357 356 355 354 352 347 343 337 328 327 305 293 294 289 279 277 285 280 286 289 294 298 302 305 303 302 294 290 287 292 290 262 270 275 269 260 258 257 260 265 268 261 250 241
354 355 355 352 348 349 347 346 343 338 331 316 307 300 298 288 270 270 281 271 277 275 295 303 307 325 315 307 293 273 281 282 261 261 273 275 272 275 286 270 270 257 256 256 245
347 350 353 351 348 347 347 345 349 345 338 334 318 315 303 298 285 286 286 263 264 280 293 295 302 304 308 303 302 296 287 268 263 261 268 278 271 299 291 292 280 256 259 260 247
344 345 346 348 349 346 345 347 348 350 348 341 332 324 317 301 292 290 269 255 261 287 303 305 317 307 295 301 319 302 297 279 266 260 259 278 278 293 295 299 294 284 274 253 256
339 343 345 345 346 348 345 346 347 348 350 345 338 326 317 299 293 293 239 249 273 287 300 298 303 311 303 310 311 316 294 266 269 261 267 276 288 278 285 292 310 288 267 267 251
335 338 343 343 344 344 345 342 342 344 344 347 340 327 320 310 297 288 245 253 277 291 301 316 323 321 327 316 322 321 305 266 259 263 267 277 278 278 281 286 296 307 331 247 233
331 333 336 341 342 341 341 338 337 339 340 342 344 330 317 318 306 260 247 255 276 298 301 303 324 331 335 337 340 337 303 294 268 258 268 281 291 276 277 289 314 318 283 204 204
329 331 331 335 339 340 338 335 332 332 334 335 337 333 318 316 305 272 248 257 272 285 299 310 312 316 327 326 331 329 324 312 289 276 276 288 286 281 275 277 303 330 312 181 190